Regional Weather Roundup
Issued by NWS

Home | Current Version | Previous Version | Text Only | Print | Product List | Glossary Off
Versions: 1 2 3 4 5 6 7 8 9 10 11 12 13 14 15 16 17 18 19 20 21 22 23 24 25 26 27 28 29 30 31 32 33 34 35 36 37 38 39 40 41 42 43 44 45 46 47 48 49 50

000
ASUS43 KLSX 300359
RWRMO

WEATHER SUMMARY FOR MISSOURI
NATIONAL WEATHER SERVICE SPRINGFIELD MO
1100 PM CDT WED JUL 29 2015

NOTE: "FAIR" INDICATES FEW OR NO CLOUDS BELOW 12,000 FEET WITH NO
       SIGNIFICANT WEATHER AND/OR OBSTRUCTIONS TO VISIBILITY.
       CURRENT SKY AND/OR WEATHER CONDITIONS ARE NOT AVAILABLE FOR
       CHILLICOTHE AND FARMINGTON.

MOZ001>031-035>038-043-044-053-054-300500-
...NORTHERN AND WESTERN MISSOURI...

CITY           SKY/WX    TMP DP  RH WIND       PRES   REMARKS
KANSAS CTY INT PTCLDY    73  63  70 NE3       30.17R
KANSAS C DTWN  CLEAR     76  63  64 CALM      30.15R
LEE`S SUMMIT   PTCLDY    73  65  75 E3        30.17R
ST JOSEPH      CLEAR     68  66  93 N3        30.16R
CHILLICOTHE      N/A     68  66  93 CALM      30.17S
KIRKSVILLE     CLEAR     66  63  90 W3        30.16R

$$
MOZ066>068-077>081-088>096-101>105-300500-
...SOUTHWEST MISSOURI...

CITY           SKY/WX    TMP DP  RH WIND       PRES   REMARKS
SPRINGFIELD    PTCLDY    77  69  76 N7        30.14R
JOPLIN         MOCLDY    79  67  66 NE7       30.14R

$$
MOZ032>034-039>042-045>050-055>058-069>072-300500-
...CENTRAL MISSOURI...

CITY           SKY/WX    TMP DP  RH WIND       PRES   REMARKS
COLUMBIA       CLEAR     71  66  84 N5        30.15R
JEFFERSON CITY CLEAR     70  65  84 W5        30.13R
ROLLA          CLEAR     70  63  78 NE3       30.14R
SEDALIA        CLEAR     72  66  81 N3        30.16S
OSAGE BEACH    CLEAR     73  63  68 NE3       30.15S

$$
MOZ051-052-059>065-300500-
...EAST CENTRAL MISSOURI...

CITY           SKY/WX    TMP DP  RH WIND       PRES   REMARKS
ST LOUIS INTL  PTCLDY    76  61  59 NW5       30.12R
SPIRIT OF STL  CLEAR     70  67  90 CALM      30.11S
ST CHARLES     CLEAR     75  60  59 NW5       30.11R

$$
MOZ072>076-082>087-097>100-106>115-300500-
...SOUTH CENTRAL AND SOUTHEAST MISSOURI...

CITY           SKY/WX    TMP DP  RH WIND       PRES   REMARKS
CAPE GIRARDEAU NOT AVBL
FARMINGTON     PTCLDY    75  64  69 N6        30.17R
POPLAR BLUFF   PTCLDY    80  74  81 N6        30.05S
WEST PLAINS    PTCLDY    76  69  79 NE9       30.14S

$$


USA.gov is the U.S. government's official web portal to all federal, state and local government web resources and services.